Theta_e
320 320 322 324 325 326 326 326 324 323 322 323 324 324 324 325 326 326 328 329 329 327 327 328 328 329 329 330 330 331 333 331 332 334 336 336 334 333 334 335 336 337
320 321 322 325 328 328 326 325 324 324 323 324 324 324 324 324 325 326 327 327 327 326 326 327 329 329 329 330 329 329 330 330 333 336 336 335 334 334 335 333 333 335
320 321 324 327 329 328 325 323 323 324 325 325 325 325 325 325 325 325 326 327 327 327 327 327 328 328 328 328 328 328 328 329 332 334 335 335 334 335 336 335 333 333
320 320 323 325 327 324 322 323 325 325 326 326 326 326 326 326 326 326 327 328 327 327 328 327 327 328 327 327 329 331 331 331 331 333 334 334 334 334 335 335 335 335
319 320 323 325 325 323 322 323 325 326 325 325 326 326 325 325 326 326 327 328 328 327 328 328 329 331 331 330 331 332 332 332 332 331 332 333 334 333 333 333 334 335
319 321 323 324 323 323 323 324 325 326 326 326 325 324 324 324 324 325 326 327 328 328 328 328 328 330 331 331 331 331 331 331 330 329 329 330 331 330 330 330 331 332
320 323 324 324 324 323 323 324 325 325 326 326 325 324 324 324 324 325 326 326 327 327 327 326 326 326 327 329 331 331 329 329 329 328 328 327 326 327 328 328 329 329
321 324 325 324 323 323 325 327 327 327 325 323 323 323 322 322 324 325 326 326 327 327 326 326 326 326 326 327 328 328 327 328 329 329 328 325 323 324 326 327 327 327
320 323 324 325 325 326 329 330 330 330 328 324 322 322 322 322 323 325 326 326 326 326 326 326 326 326 326 326 326 326 326 328 328 329 327 324 323 323 324 325 325 325
320 323 324 326 327 329 330 330 330 330 329 327 324 322 322 322 323 325 326 326 325 325 326 326 326 327 326 326 326 327 327 327 327 327 326 324 322 323 323 324 324 324
321 324 326 327 328 329 329 329 328 328 328 328 327 325 325 325 325 326 327 327 326 325 326 326 326 326 326 326 327 326 327 327 326 325 324 322 322 322 323 323 324 326
324 326 327 328 328 328 328 327 327 327 328 328 328 327 328 328 329 329 328 327 327 326 326 326 326 326 326 326 326 326 326 326 325 324 323 322 321 322 323 323 324 327
325 327 328 328 329 328 327 327 327 328 327 327 327 327 327 328 330 330 329 329 328 326 325 325 325 326 326 326 326 326 326 325 324 323 323 322 322 322 323 324 324 325
324 327 328 327 326 325 325 325 326 326 326 326 326 327 327 327 329 330 329 328 327 326 325 325 325 325 326 326 326 326 326 325 323 323 322 321 322 323 324 323 322 322
322 325 326 325 325 325 325 325 326 326 326 326 326 326 327 327 328 327 326 326 327 327 326 325 325 325 325 326 326 327 326 324 323 323 322 321 322 323 323 323 322 321
322 323 324 325 325 326 326 326 327 326 326 325 325 325 326 326 325 323 325 327 329 330 328 327 326 325 324 324 325 326 325 323 322 323 322 321 322 323 324 323 322 321
324 325 325 326 327 327 326 327 326 325 324 325 325 326 326 326 325 325 327 329 329 330 329 328 328 326 323 323 323 325 324 321 322 323 323 322 323 323 323 323 321 321
325 327 327 328 328 328 327 327 325 323 324 326 327 327 326 325 325 327 328 329 329 330 329 329 329 327 323 322 322 323 323 320 322 324 324 324 323 323 323 322 322 322
326 328 328 328 329 328 327 326 324 324 325 326 327 327 326 326 326 327 329 329 329 329 329 328 328 326 323 321 322 323 322 320 321 323 325 325 324 324 323 322 322 322
327 329 329 329 329 328 326 325 324 324 325 326 327 327 327 327 327 327 328 328 328 328 328 328 327 325 322 321 321 323 322 321 321 322 323 324 325 325 324 322 322 322
328 329 329 328 328 327 326 325 325 325 325 326 327 326 327 326 326 327 327 327 327 327 327 327 327 325 322 321 321 322 324 323 322 321 321 322 322 324 325 323 322 322
330 331 331 330 329 328 327 326 326 326 325 326 326 326 326 325 325 325 326 326 326 326 326 327 327 325 323 321 320 322 325 324 322 321 321 321 321 323 323 323 323 323
331 332 332 331 331 329 328 326 326 326 326 326 326 326 325 324 324 325 325 325 326 326 327 328 327 326 324 322 320 322 325 325 323 321 321 321 321 322 323 323 324 324
329 330 331 332 331 330 328 327 326 325 326 326 326 326 325 324 325 325 325 326 325 326 326 326 326 326 325 322 320 322 325 325 321 320 320 321 321 322 322 323 324 325
327 327 328 330 331 329 328 327 327 326 326 326 327 326 326 325 325 325 325 326 325 325 326 326 326 327 325 323 321 321 324 323 319 319 320 320 321 321 321 322 323 325
325 324 324 327 329 329 328 329 328 327 326 326 326 325 325 325 325 325 326 326 325 326 326 326 327 326 325 323 321 320 320 320 319 320 320 320 320 320 320 321 323 324
Wind_Speed
12 11 10 10 10 11 12 13 14 15 16 16 16 17 16 15 14 13 13 13 14 15 15 15 15 15 16 16 16 16 16 18 18 18 19 21 24 24 24 25 24 25
12 11 10 9 10 10 11 12 13 14 15 15 15 16 15 15 15 14 13 13 14 14 14 15 15 16 16 17 17 18 18 18 17 16 17 20 23 24 25 27 26 26
12 11 10 9 9 9 10 11 12 13 13 13 14 14 15 15 15 15 15 14 13 12 13 14 14 16 17 18 18 18 18 18 17 16 16 19 22 22 23 25 27 27
12 11 10 9 9 9 9 10 10 11 11 11 12 13 14 14 15 15 14 13 13 12 12 14 15 16 18 19 18 17 16 17 18 17 17 19 21 22 22 23 25 26
12 11 10 9 9 9 9 9 9 10 10 10 10 11 13 14 15 15 14 13 12 13 13 14 15 15 15 16 16 15 15 15 17 18 19 20 21 23 25 24 24 26
12 11 9 9 8 8 8 8 9 9 10 10 10 11 12 14 15 15 15 14 13 13 14 15 16 15 14 14 15 15 15 15 17 18 19 20 21 24 26 27 27 28
12 11 9 8 8 8 8 8 9 10 10 10 11 11 12 13 14 15 15 15 15 15 16 17 18 18 16 15 14 15 15 16 18 18 19 20 23 24 25 26 28 29
12 11 9 9 8 8 8 9 10 11 12 11 11 12 13 13 14 14 15 16 16 16 17 18 18 17 16 15 15 15 16 17 17 18 20 22 23 25 25 26 28 29
12 11 10 9 9 9 9 9 10 12 13 14 13 14 14 14 14 14 15 16 16 16 17 18 18 16 15 15 16 17 18 18 18 19 21 23 25 26 27 29 31 32
12 11 10 9 9 9 9 9 10 11 13 15 16 16 15 15 14 14 14 14 15 16 16 17 17 16 16 16 17 18 18 19 20 21 21 22 25 27 29 31 34 35
11 10 10 9 9 9 9 10 11 12 13 15 17 17 16 16 15 15 15 15 15 16 16 17 18 18 19 18 18 18 19 21 22 22 21 21 24 28 30 32 34 35
11 10 10 9 9 10 10 11 12 13 14 14 14 16 16 16 15 16 15 15 16 17 17 19 20 21 20 20 19 20 21 22 23 21 19 21 26 29 30 32 32 33
10 10 10 10 10 11 12 12 13 13 14 14 14 15 15 15 16 16 16 16 16 17 18 19 20 21 21 20 20 21 23 24 22 20 19 21 26 28 29 31 32 32
10 10 10 10 11 12 13 14 14 14 15 15 15 15 16 16 16 16 17 17 16 16 18 19 19 20 20 20 20 21 22 23 22 20 19 21 25 28 27 30 33 33
10 10 10 10 11 12 14 14 14 14 15 15 16 16 16 17 16 16 17 17 16 16 16 18 18 18 18 19 19 21 22 22 21 20 19 21 25 28 27 29 33 36
10 10 10 11 12 13 15 14 14 14 15 16 17 17 16 17 17 17 17 16 15 15 15 17 17 18 19 19 19 20 22 21 21 20 19 21 25 27 26 29 34 37
9 10 10 11 12 14 15 14 13 14 16 17 17 16 16 16 17 17 16 15 14 14 15 16 17 19 20 20 19 20 21 20 20 19 18 20 24 25 25 30 35 37
9 10 11 11 13 15 15 13 13 15 16 16 15 15 15 16 16 16 15 14 14 14 15 15 17 19 20 20 20 20 19 19 19 18 18 20 22 23 25 29 33 36
10 10 11 12 13 15 14 12 13 14 14 14 13 14 14 15 15 14 14 14 15 15 16 16 17 19 20 20 20 19 17 17 17 17 17 19 21 23 25 27 30 34
10 11 12 13 14 15 14 12 12 12 12 12 12 12 13 14 14 14 15 15 15 15 16 17 17 20 22 20 19 18 16 16 17 17 17 19 21 23 24 24 27 31
11 12 13 14 14 15 14 12 11 11 12 12 11 12 12 13 14 14 15 16 15 15 16 16 17 20 22 21 19 17 16 17 18 18 18 20 21 23 23 23 24 27
11 12 13 14 13 13 12 11 11 11 12 13 13 13 13 13 14 13 14 15 15 15 16 16 16 19 22 22 19 17 17 18 19 19 20 20 21 23 23 22 22 23
12 13 14 14 13 13 12 11 11 12 12 13 14 13 12 13 13 13 13 14 14 15 15 15 16 19 21 21 19 18 18 19 20 20 20 21 21 22 23 22 21 21
14 15 16 15 13 13 12 11 11 12 12 13 14 13 13 12 12 13 13 14 15 14 15 16 16 17 19 20 18 17 18 19 20 20 20 21 21 21 22 22 21 20
15 15 16 15 14 13 12 11 12 12 12 12 13 12 12 12 12 13 14 15 15 14 15 16 16 15 18 19 17 16 17 18 20 21 21 21 21 22 22 22 21 21
14 15 15 15 15 14 13 12 12 12 11 12 12 11 11 11 12 14 15 15 15 14 14 14 14 14 17 18 16 16 16 18 20 22 22 22 21 22 23 22 22 22
Wind_Direction
311 311 307 300 300 304 306 309 312 315 316 317 318 321 323 324 325 328 326 322 320 322 324 324 324 325 324 322 320 315 309 306 304 297 291 289 289 287 282 279 277 275
310 311 308 302 301 304 308 313 315 316 316 315 315 317 320 323 325 325 324 322 321 322 323 323 324 324 323 322 320 318 315 312 308 299 293 291 291 289 286 284 281 276
310 309 305 300 297 299 309 317 321 321 317 315 316 317 320 323 324 325 324 322 322 321 322 324 325 323 321 320 318 316 314 312 309 303 297 294 291 286 282 283 284 279
307 307 304 299 297 301 313 323 328 329 324 320 320 319 322 324 324 325 325 323 322 322 322 324 324 322 321 320 318 316 313 311 310 306 300 296 295 291 284 280 281 279
303 304 304 300 299 305 319 330 334 334 331 328 327 325 326 327 325 325 325 322 321 321 321 322 321 319 318 316 315 315 313 310 309 308 304 299 296 295 292 287 281 278
301 301 302 300 299 307 320 329 329 327 327 329 330 329 328 329 327 326 325 321 317 317 318 321 323 321 315 313 313 313 313 313 314 314 313 310 307 304 302 299 293 286
297 297 299 298 297 305 314 319 320 319 320 324 326 326 326 327 327 325 323 319 316 314 314 319 326 325 319 315 313 314 315 316 317 318 317 317 316 314 309 306 303 299
292 291 294 294 293 300 306 310 312 313 313 317 320 322 324 323 322 323 322 319 315 312 310 315 324 326 324 320 317 317 318 317 317 315 315 320 323 321 317 312 308 304
291 290 291 290 290 294 295 298 303 306 310 316 318 319 319 317 316 317 319 319 317 313 310 312 319 325 327 326 322 319 319 318 315 312 313 320 326 326 322 318 315 310
291 289 289 285 284 286 289 295 300 301 305 311 315 317 315 312 312 312 314 317 318 317 313 311 313 315 319 323 323 321 320 318 317 315 313 320 328 329 325 322 319 314
288 283 281 280 280 282 287 294 298 300 304 309 315 319 317 314 311 309 310 314 317 317 313 311 311 310 311 316 319 323 324 322 321 319 317 325 334 333 329 326 320 315
282 274 273 275 277 281 287 294 298 302 306 309 311 313 312 312 309 305 305 309 313 315 313 311 312 310 308 309 312 320 324 324 324 322 320 329 335 333 331 329 324 316
275 269 270 273 276 283 291 296 299 300 302 305 307 308 308 308 307 306 305 303 305 311 313 314 313 311 308 306 308 316 320 322 324 322 323 330 333 332 332 332 329 321
273 268 269 274 280 288 295 300 302 304 304 305 307 307 305 305 307 308 308 305 305 308 312 313 313 313 311 307 308 312 315 318 320 320 326 333 334 335 335 335 335 332
274 271 272 278 286 292 297 303 308 307 305 304 304 304 303 304 305 307 310 310 309 309 310 312 313 314 313 310 309 310 311 314 317 318 324 330 333 335 334 335 339 339
277 274 275 281 287 292 298 305 308 306 304 304 304 302 299 301 304 308 312 311 308 307 308 310 312 314 315 313 309 306 307 312 316 318 320 323 328 332 332 336 341 342
276 273 276 282 288 293 300 306 307 306 307 307 305 302 301 302 306 309 312 310 306 305 305 308 310 313 317 315 307 303 306 311 316 318 317 318 324 329 332 338 342 343
272 271 275 281 287 295 302 306 307 308 310 308 305 303 302 303 305 307 309 309 305 302 303 306 308 311 317 315 306 302 305 311 316 318 318 318 323 330 334 339 343 344
272 271 275 280 287 295 301 305 306 309 311 308 303 302 303 305 307 307 306 305 302 301 304 307 308 315 321 318 308 302 305 312 318 320 320 319 322 328 334 339 343 344
276 275 278 281 287 293 299 301 303 306 308 307 305 305 307 309 310 309 306 306 306 304 305 307 310 317 325 322 312 303 302 310 320 323 322 320 320 325 331 337 341 344
279 278 279 282 286 291 295 296 297 302 306 308 308 308 309 310 312 313 312 311 311 308 306 306 307 314 324 325 314 302 300 308 316 320 320 320 322 326 330 333 337 344
276 276 277 280 282 284 286 289 292 297 302 307 310 311 311 312 314 315 315 314 314 310 307 307 307 313 322 326 315 301 298 306 313 316 317 317 321 326 330 331 331 339
270 272 272 273 274 274 277 284 289 294 300 305 308 311 311 310 313 315 316 316 316 312 308 307 309 312 318 324 318 303 298 306 313 315 315 314 317 321 326 329 329 331
268 271 270 268 266 267 272 279 284 290 298 302 305 308 308 308 311 313 315 317 317 314 309 308 310 310 313 321 321 306 302 309 314 316 315 315 316 319 322 327 329 329
272 273 270 265 261 261 266 274 281 288 295 299 302 304 304 306 309 310 313 316 316 314 311 311 312 310 311 319 322 312 307 310 313 316 318 318 318 319 321 325 328 331
278 277 275 269 261 259 262 269 277 284 288 292 296 299 299 302 308 311 313 314 315 316 314 311 311 310 310 316 319 314 311 311 313 317 319 321 321 320 322 325 325 328